Time,TemperatureF,DewpointF,PressureIn,WindDirection,WindDirectionDegrees,WindSpeedMPH,WindSpeedGustMPH,Humidity,HourlyPrecipIn,Conditions,Clouds,dailyrainin,SoftwareType,DateUTC
2013-06-04 00:04:00,49.5,37.8,30.16,NE,42,0.0,0.0,64,0.00,,,0.00,VWS V12.07,2013-06-04 05:04:00,
2013-06-04 00:09:00,49.4,38.5,30.16,NE,42,0.0,0.0,66,0.00,,,0.00,VWS V12.07,2013-06-04 05:09:00,
2013-06-04 00:14:00,49.3,38.8,30.16,NE,42,0.0,0.0,67,0.00,,,0.00,VWS V12.07,2013-06-04 05:14:00,
2013-06-04 00:24:00,49.6,38.3,30.17,NE,42,0.0,1.0,65,0.00,,,0.00,VWS V12.07,2013-06-04 05:24:00,
2013-06-04 00:29:00,49.6,39.5,30.17,NE,42,0.0,1.0,68,0.00,,,0.00,VWS V12.07,2013-06-04 05:29:00,
2013-06-04 00:34:00,49.5,39.4,30.17,NE,42,0.0,0.0,68,0.00,,,0.00,VWS V12.07,2013-06-04 05:34:00,
2013-06-04 00:39:00,49.4,39.3,30.17,NE,41,0.0,1.0,68,0.00,,,0.00,VWS V12.07,2013-06-04 05:39:00,
2013-06-04 00:44:00,49.2,38.7,30.17,NE,42,0.0,1.0,67,0.00,,,0.00,VWS V12.07,2013-06-04 05:44:00,
2013-06-04 00:49:00,49.0,38.5,30.17,NE,42,0.0,1.0,67,0.00,,,0.00,VWS V12.07,2013-06-04 05:49:00,
2013-06-04 00:59:00,49.0,37.8,30.17,NE,41,1.0,1.0,65,0.00,,,0.00,VWS V12.07,2013-06-04 05:59:00,
2013-06-04 01:09:00,49.3,38.0,30.17,NE,42,0.0,1.0,65,0.00,,,0.00,VWS V12.07,2013-06-04 06:09:00,
2013-06-04 01:14:00,49.2,38.0,30.16,NE,41,0.0,1.0,65,0.00,,,0.00,VWS V12.07,2013-06-04 06:14:00,
2013-06-04 01:24:00,48.7,37.5,30.16,NE,42,0.0,1.0,65,0.00,,,0.00,VWS V12.07,2013-06-04 06:24:00,
2013-06-04 01:29:00,48.4,37.6,30.15,NE,42,0.0,1.0,66,0.00,,,0.00,VWS V12.07,2013-06-04 06:29:00,
2013-06-04 01:39:00,47.8,38.1,30.15,NE,41,0.0,0.0,69,0.00,,,0.00,VWS V12.07,2013-06-04 06:39:00,
2013-06-04 01:44:00,47.6,37.6,30.15,NE,42,0.0,0.0,68,0.00,,,0.00,VWS V12.07,2013-06-04 06:44:00,
2013-06-04 01:49:00,47.4,38.1,30.15,NE,42,0.0,1.0,70,0.00,,,0.00,VWS V12.07,2013-06-04 06:49:00,
2013-06-04 01:54:00,47.3,38.4,30.16,NE,41,0.0,1.0,71,0.00,,,0.00,VWS V12.07,2013-06-04 06:54:00,
2013-06-04 01:59:00,47.2,37.9,30.16,NE,42,0.0,1.0,70,0.00,,,0.00,VWS V12.07,2013-06-04 06:59:00,
2013-06-04 02:04:00,47.0,38.1,30.16,NE,42,0.0,0.0,71,0.00,,,0.00,VWS V12.07,2013-06-04 07:04:00,
2013-06-04 02:19:00,46.6,38.4,30.16,NE,41,0.0,0.0,73,0.00,,,0.00,VWS V12.07,2013-06-04 07:19:00,
2013-06-04 02:24:00,46.6,38.8,30.15,NE,42,0.0,0.0,74,0.00,,,0.00,VWS V12.07,2013-06-04 07:24:00,
2013-06-04 02:29:00,46.5,39.0,30.16,NE,42,0.0,0.0,75,0.00,,,0.00,VWS V12.07,2013-06-04 07:29:00,
2013-06-04 02:34:00,46.4,38.9,30.15,NE,42,0.0,0.0,75,0.00,,,0.00,VWS V12.07,2013-06-04 07:34:00,
2013-06-04 02:39:00,46.4,38.9,30.15,NE,42,0.0,0.0,75,0.00,,,0.00,VWS V12.07,2013-06-04 07:39:00,
2013-06-04 02:49:00,46.3,39.5,30.16,NE,41,0.0,0.0,77,0.00,,,0.00,VWS V12.07,2013-06-04 07:49:00,
2013-06-04 02:54:00,46.3,39.5,30.16,NE,41,0.0,0.0,77,0.00,,,0.00,VWS V12.07,2013-06-04 07:54:00,
2013-06-04 02:59:00,46.2,39.7,30.16,NE,42,0.0,0.0,78,0.00,,,0.00,VWS V12.07,2013-06-04 07:59:00,
2013-06-04 03:04:00,46.2,39.7,30.15,NE,42,0.0,0.0,78,0.00,,,0.00,VWS V12.07,2013-06-04 08:04:00,
2013-06-04 03:14:00,46.1,39.6,30.15,NE,42,0.0,0.0,78,0.00,,,0.00,VWS V12.07,2013-06-04 08:14:00,
2013-06-04 03:24:00,46.1,40.0,30.15,NE,41,0.0,0.0,79,0.00,,,0.00,VWS V12.07,2013-06-04 08:24:00,
2013-06-04 03:29:00,46.2,40.4,30.15,NE,41,0.0,0.0,80,0.00,,,0.00,VWS V12.07,2013-06-04 08:29:00,
2013-06-04 03:34:00,46.2,40.4,30.16,NE,42,0.0,0.0,80,0.00,,,0.00,VWS V12.07,2013-06-04 08:34:00,
2013-06-04 03:39:00,46.1,40.3,30.16,NE,42,0.0,0.0,80,0.00,,,0.00,VWS V12.07,2013-06-04 08:39:00,
2013-06-04 03:44:00,46.1,40.3,30.15,NE,42,0.0,1.0,80,0.00,,,0.00,VWS V12.07,2013-06-04 08:44:00,
2013-06-04 03:49:00,46.3,40.2,30.15,NE,41,0.0,1.0,79,0.00,,,0.00,VWS V12.07,2013-06-04 08:49:00,
2013-06-04 03:54:00,46.5,40.3,30.16,NE,41,0.0,1.0,79,0.00,,,0.00,VWS V12.07,2013-06-04 08:54:00,
2013-06-04 03:59:00,46.6,40.5,30.16,NE,42,0.0,1.0,79,0.00,,,0.00,VWS V12.07,2013-06-04 08:59:00,
2013-06-04 04:04:00,46.7,40.5,30.17,NE,41,1.0,1.0,79,0.00,,,0.00,VWS V12.07,2013-06-04 09:04:00,
2013-06-04 04:09:00,46.7,39.9,30.17,NE,42,0.0,1.0,77,0.00,,,0.00,VWS V12.07,2013-06-04 09:09:00,
2013-06-04 04:14:00,46.8,40.3,30.17,NE,42,0.0,1.0,78,0.00,,,0.00,VWS V12.07,2013-06-04 09:14:00,
2013-06-04 04:19:00,46.8,40.0,30.17,NE,42,0.0,1.0,77,0.00,,,0.00,VWS V12.07,2013-06-04 09:19:00,
2013-06-04 04:24:00,46.8,40.3,30.17,NE,42,0.0,1.0,78,0.00,,,0.00,VWS V12.07,2013-06-04 09:24:00,
2013-06-04 04:29:00,46.9,40.4,30.17,NE,42,0.0,1.0,78,0.00,,,0.00,VWS V12.07,2013-06-04 09:29:00,
2013-06-04 04:39:00,46.9,40.4,30.18,NE,42,0.0,0.0,78,0.00,,,0.00,VWS V12.07,2013-06-04 09:39:00,
2013-06-04 04:44:00,47.0,40.5,30.18,NE,42,0.0,1.0,78,0.00,,,0.00,VWS V12.07,2013-06-04 09:44:00,
2013-06-04 04:49:00,47.0,40.2,30.19,NE,42,0.0,1.0,77,0.00,,,0.00,VWS V12.07,2013-06-04 09:49:00,
2013-06-04 04:54:00,47.0,39.8,30.19,NE,42,0.0,1.0,76,0.00,,,0.00,VWS V12.07,2013-06-04 09:54:00,
2013-06-04 04:59:00,46.8,39.7,30.19,NE,42,0.0,1.0,76,0.00,,,0.00,VWS V12.07,2013-06-04 09:59:00,
2013-06-04 05:04:00,46.7,39.9,30.19,NE,42,0.0,0.0,77,0.00,,,0.00,VWS V12.07,2013-06-04 10:04:00,
2013-06-04 05:14:00,46.7,40.2,30.20,NE,42,0.0,0.0,78,0.00,,,0.00,VWS V12.07,2013-06-04 10:14:00,
2013-06-04 05:24:00,46.8,40.3,30.20,NE,41,0.0,0.0,78,0.00,,,0.00,VWS V12.07,2013-06-04 10:24:00,
2013-06-04 05:29:00,46.9,40.1,30.20,NE,42,0.0,0.0,77,0.00,,,0.00,VWS V12.07,2013-06-04 10:29:00,
2013-06-04 05:34:00,46.9,40.4,30.20,NE,42,0.0,0.0,78,0.00,,,0.00,VWS V12.07,2013-06-04 10:34:00,
2013-06-04 05:39:00,46.9,40.7,30.20,NE,41,0.0,0.0,79,0.00,,,0.00,VWS V12.07,2013-06-04 10:39:00,
2013-06-04 05:44:00,46.9,40.7,30.20,NE,42,0.0,0.0,79,0.00,,,0.00,VWS V12.07,2013-06-04 10:44:00,
2013-06-04 05:49:00,46.9,41.1,30.19,NE,41,0.0,0.0,80,0.00,,,0.00,VWS V12.07,2013-06-04 10:49:00,
2013-06-04 05:54:00,46.8,41.3,30.20,NE,42,0.0,0.0,81,0.00,,,0.00,VWS V12.07,2013-06-04 10:54:00,
2013-06-04 05:59:00,46.9,41.4,30.20,NE,41,0.0,0.0,81,0.00,,,0.00,VWS V12.07,2013-06-04 10:59:00,
2013-06-04 06:04:00,46.9,41.4,30.19,NE,42,0.0,0.0,81,0.00,,,0.00,VWS V12.07,2013-06-04 11:04:00,
2013-06-04 06:09:00,47.0,41.5,30.19,NE,42,0.0,0.0,81,0.00,,,0.00,VWS V12.07,2013-06-04 11:09:00,
2013-06-04 06:14:00,47.2,42.0,30.19,NE,42,0.0,2.0,82,0.00,,,0.00,VWS V12.07,2013-06-04 11:14:00,
2013-06-04 06:19:00,47.4,41.5,30.19,NE,42,0.0,2.0,80,0.00,,,0.00,VWS V12.07,2013-06-04 11:19:00,
2013-06-04 06:24:00,47.6,41.8,30.19,NE,42,0.0,2.0,80,0.00,,,0.00,VWS V12.07,2013-06-04 11:24:00,
2013-06-04 06:29:00,47.7,42.2,30.19,NE,42,0.0,2.0,81,0.00,,,0.00,VWS V12.07,2013-06-04 11:29:00,
2013-06-04 06:34:00,47.7,41.5,30.19,NE,41,0.0,0.0,79,0.00,,,0.00,VWS V12.07,2013-06-04 11:34:00,
2013-06-04 06:39:00,47.6,42.1,30.19,NE,41,0.0,1.0,81,0.00,,,0.00,VWS V12.07,2013-06-04 11:39:00,
2013-06-04 06:49:00,47.3,42.4,30.18,NE,42,0.0,1.0,83,0.00,,,0.00,VWS V12.07,2013-06-04 11:49:00,
2013-06-04 06:54:00,47.2,42.6,30.18,NE,41,0.0,1.0,84,0.00,,,0.00,VWS V12.07,2013-06-04 11:54:00,
2013-06-04 06:59:00,47.2,42.6,30.18,NE,42,0.0,1.0,84,0.00,,,0.00,VWS V12.07,2013-06-04 11:59:00,
2013-06-04 07:04:00,47.1,42.5,30.19,NE,42,0.0,0.0,84,0.00,,,0.00,VWS V12.07,2013-06-04 12:04:00,
2013-06-04 07:14:00,47.1,42.2,30.18,NE,42,0.0,0.0,83,0.00,,,0.00,VWS V12.07,2013-06-04 12:14:00,
2013-06-04 07:19:00,47.2,42.0,30.18,NE,42,0.0,0.0,82,0.00,,,0.00,VWS V12.07,2013-06-04 12:19:00,
2013-06-04 07:24:00,47.3,42.1,30.18,NE,42,0.0,0.0,82,0.00,,,0.00,VWS V12.07,2013-06-04 12:24:00,
2013-06-04 07:29:00,47.5,41.7,30.18,North,355,1.0,3.0,80,0.00,,,0.00,VWS V12.07,2013-06-04 12:29:00,
2013-06-04 07:34:00,47.8,41.6,30.18,North,355,0.0,0.0,79,0.00,,,0.00,VWS V12.07,2013-06-04 12:34:00,
2013-06-04 07:39:00,48.3,42.1,30.18,North,355,0.0,1.0,79,0.00,,,0.00,VWS V12.07,2013-06-04 12:39:00,
2013-06-04 07:44:00,48.6,41.7,30.18,North,355,0.0,1.0,77,0.00,,,0.00,VWS V12.07,2013-06-04 12:44:00,
2013-06-04 07:49:00,48.9,42.0,30.18,NW,317,1.0,2.0,77,0.00,,,0.00,VWS V12.07,2013-06-04 12:49:00,
2013-06-04 07:54:00,49.3,42.7,30.18,NW,317,0.0,2.0,78,0.00,,,0.00,VWS V12.07,2013-06-04 12:54:00,
2013-06-04 07:59:00,49.7,42.5,30.18,NW,317,0.0,2.0,76,0.00,,,0.00,VWS V12.07,2013-06-04 12:59:00,
2013-06-04 08:04:00,50.0,42.4,30.18,NW,317,0.0,1.0,75,0.00,,,0.00,VWS V12.07,2013-06-04 13:04:00,
2013-06-04 08:09:00,50.4,42.4,30.18,SSE,152,1.0,3.0,74,0.00,,,0.00,VWS V12.07,2013-06-04 13:09:00,
2013-06-04 08:19:00,50.9,42.2,30.18,North,360,0.0,3.0,72,0.00,,,0.00,VWS V12.07,2013-06-04 13:19:00,
2013-06-04 08:24:00,51.2,41.8,30.18,North,360,0.0,3.0,70,0.00,,,0.00,VWS V12.07,2013-06-04 13:24:00,
2013-06-04 08:29:00,51.5,42.0,30.18,NNE,21,0.0,3.0,70,0.00,,,0.00,VWS V12.07,2013-06-04 13:29:00,
2013-06-04 08:34:00,51.7,41.9,30.18,NNE,21,0.0,2.0,69,0.00,,,0.00,VWS V12.07,2013-06-04 13:34:00,
2013-06-04 08:39:00,51.9,42.4,30.19,NNE,21,1.0,2.0,70,0.00,,,0.00,VWS V12.07,2013-06-04 13:39:00,
2013-06-04 08:44:00,52.1,41.9,30.19,NNE,19,0.0,2.0,68,0.00,,,0.00,VWS V12.07,2013-06-04 13:44:00,
2013-06-04 08:49:00,52.4,42.2,30.19,NNE,20,0.0,2.0,68,0.00,,,0.00,VWS V12.07,2013-06-04 13:49:00,
2013-06-04 08:54:00,52.5,41.9,30.19,NNE,20,0.0,2.0,67,0.00,,,0.00,VWS V12.07,2013-06-04 13:54:00,
2013-06-04 08:59:00,52.6,41.2,30.20,NW,319,0.0,3.0,65,0.00,,,0.00,VWS V12.07,2013-06-04 13:59:00,
2013-06-04 09:04:00,52.7,40.9,30.20,NNE,17,1.0,3.0,64,0.00,,,0.00,VWS V12.07,2013-06-04 14:04:00,
2013-06-04 09:14:00,53.0,41.2,30.20,NNE,15,2.0,3.0,64,0.00,,,0.00,VWS V12.07,2013-06-04 14:14:00,
2013-06-04 09:19:00,53.1,41.7,30.20,NNE,15,2.0,3.0,65,0.00,,,0.00,VWS V12.07,2013-06-04 14:19:00,
2013-06-04 09:24:00,53.2,41.3,30.20,North,360,0.0,3.0,64,0.00,,,0.00,VWS V12.07,2013-06-04 14:24:00,
2013-06-04 09:29:00,53.3,41.8,30.20,NNE,15,1.0,3.0,65,0.00,,,0.00,VWS V12.07,2013-06-04 14:29:00,
2013-06-04 09:34:00,53.4,41.9,30.19,NNE,13,0.0,2.0,65,0.00,,,0.00,VWS V12.07,2013-06-04 14:34:00,
2013-06-04 09:39:00,53.6,42.5,30.19,North,360,0.0,2.0,66,0.00,,,0.00,VWS V12.07,2013-06-04 14:39:00,
2013-06-04 09:44:00,53.8,42.3,30.19,North,5,2.0,3.0,65,0.00,,,0.00,VWS V12.07,2013-06-04 14:44:00,
2013-06-04 09:54:00,53.9,42.4,30.19,North,5,1.0,4.0,65,0.00,,,0.00,VWS V12.07,2013-06-04 14:54:00,
2013-06-04 09:59:00,53.9,41.6,30.19,NNW,346,0.0,4.0,63,0.00,,,0.00,VWS V12.07,2013-06-04 14:59:00,
2013-06-04 10:04:00,53.9,41.2,30.20,NNW,346,0.0,1.0,62,0.00,,,0.00,VWS V12.07,2013-06-04 15:04:00,
2013-06-04 10:09:00,54.0,42.5,30.20,North,350,1.0,2.0,65,0.00,,,0.00,VWS V12.07,2013-06-04 15:09:00,
2013-06-04 10:19:00,54.2,42.7,30.21,North,349,0.0,3.0,65,0.00,,,0.00,VWS V12.07,2013-06-04 15:19:00,
2013-06-04 10:24:00,54.4,42.1,30.22,North,355,0.0,3.0,63,0.00,,,0.00,VWS V12.07,2013-06-04 15:24:00,
2013-06-04 10:29:00,54.5,43.0,30.22,North,355,0.0,3.0,65,0.00,,,0.00,VWS V12.07,2013-06-04 15:29:00,
2013-06-04 10:34:00,54.7,42.8,30.22,North,355,1.0,1.0,64,0.00,,,0.00,VWS V12.07,2013-06-04 15:34:00,
2013-06-04 10:39:00,54.8,42.5,30.22,North,355,0.0,2.0,63,0.00,,,0.00,VWS V12.07,2013-06-04 15:39:00,
2013-06-04 10:44:00,55.1,43.6,30.22,North,355,1.0,2.0,65,0.00,,,0.00,VWS V12.07,2013-06-04 15:44:00,
2013-06-04 10:49:00,55.4,43.4,30.22,North,355,0.0,2.0,64,0.00,,,0.00,VWS V12.07,2013-06-04 15:49:00,
2013-06-04 10:54:00,55.6,42.8,30.22,North,355,0.0,2.0,62,0.00,,,0.00,VWS V12.07,2013-06-04 15:54:00,
2013-06-04 11:04:00,56.0,43.6,30.22,North,355,0.0,2.0,63,0.00,,,0.00,VWS V12.07,2013-06-04 16:04:00,
2013-06-04 11:09:00,56.3,43.5,30.22,North,355,1.0,2.0,62,0.00,,,0.00,VWS V12.07,2013-06-04 16:09:00,
2013-06-04 11:14:00,56.6,44.2,30.22,North,355,1.0,2.0,63,0.00,,,0.00,VWS V12.07,2013-06-04 16:14:00,
2013-06-04 11:24:00,56.9,44.0,30.22,NNW,329,0.0,3.0,62,0.00,,,0.00,VWS V12.07,2013-06-04 16:24:00,
2013-06-04 11:29:00,57.1,43.8,30.21,NNW,329,2.0,3.0,61,0.00,,,0.00,VWS V12.07,2013-06-04 16:29:00,
2013-06-04 11:34:00,57.3,44.4,30.21,WNW,302,1.0,2.0,62,0.00,,,0.00,VWS V12.07,2013-06-04 16:34:00,
2013-06-04 11:39:00,57.5,44.6,30.21,NW,324,0.0,2.0,62,0.00,,,0.00,VWS V12.07,2013-06-04 16:39:00,
2013-06-04 11:44:00,57.6,43.8,30.21,North,360,0.0,2.0,60,0.00,,,0.00,VWS V12.07,2013-06-04 16:44:00,
2013-06-04 11:49:00,57.7,43.9,30.22,North,360,1.0,2.0,60,0.00,,,0.00,VWS V12.07,2013-06-04 16:49:00,
2013-06-04 11:54:00,57.8,44.5,30.22,North,360,0.0,2.0,61,0.00,,,0.00,VWS V12.07,2013-06-04 16:54:00,
2013-06-04 11:59:00,57.9,45.0,30.22,North,349,0.0,2.0,62,0.00,,,0.00,VWS V12.07,2013-06-04 16:59:00,
2013-06-04 12:04:00,58.0,43.3,30.22,NNW,348,1.0,1.0,58,0.00,,,0.00,VWS V12.07,2013-06-04 17:04:00,
2013-06-04 12:09:00,58.1,44.7,30.22,NNW,348,1.0,2.0,61,0.00,,,0.00,VWS V12.07,2013-06-04 17:09:00,
2013-06-04 12:14:00,58.3,44.9,30.22,North,355,2.0,2.0,61,0.00,,,0.00,VWS V12.07,2013-06-04 17:14:00,
2013-06-04 12:19:00,58.3,45.3,30.21,North,355,2.0,2.0,62,0.00,,,0.00,VWS V12.07,2013-06-04 17:19:00,
2013-06-04 12:24:00,58.3,45.3,30.21,North,355,1.0,3.0,62,0.00,,,0.00,VWS V12.07,2013-06-04 17:24:00,
2013-06-04 12:29:00,58.3,44.0,30.21,NW,315,1.0,4.0,59,0.00,,,0.00,VWS V12.07,2013-06-04 17:29:00,
2013-06-04 12:34:00,58.4,45.5,30.21,NW,321,0.0,2.0,62,0.00,,,0.00,VWS V12.07,2013-06-04 17:34:00,
2013-06-04 12:44:00,58.4,45.0,30.21,NNE,15,2.0,2.0,61,0.00,,,0.00,VWS V12.07,2013-06-04 17:44:00,
2013-06-04 12:49:00,58.4,44.6,30.21,NW,314,0.0,4.0,60,0.00,,,0.00,VWS V12.07,2013-06-04 17:49:00,
2013-06-04 12:54:00,58.4,44.1,30.21,North,351,0.0,4.0,59,0.00,,,0.00,VWS V12.07,2013-06-04 17:54:00,
2013-06-04 12:59:00,58.5,44.7,30.21,North,355,0.0,4.0,60,0.00,,,0.00,VWS V12.07,2013-06-04 17:59:00,
2013-06-04 13:04:00,58.5,45.1,30.20,North,360,0.0,2.0,61,0.00,,,0.00,VWS V12.07,2013-06-04 18:04:00,
2013-06-04 13:09:00,58.4,45.5,30.21,North,360,0.0,2.0,62,0.00,,,0.00,VWS V12.07,2013-06-04 18:09:00,
2013-06-04 13:14:00,58.4,44.6,30.20,NE,41,1.0,2.0,60,0.00,,,0.00,VWS V12.07,2013-06-04 18:14:00,
2013-06-04 13:19:00,58.3,45.3,30.20,NE,41,0.0,2.0,62,0.00,,,0.00,VWS V12.07,2013-06-04 18:19:00,
2013-06-04 13:29:00,58.1,45.2,30.20,NNW,328,0.0,2.0,62,0.00,,,0.00,VWS V12.07,2013-06-04 18:29:00,
2013-06-04 13:34:00,58.0,44.2,30.21,NNW,346,0.0,0.0,60,0.00,,,0.00,VWS V12.07,2013-06-04 18:34:00,
2013-06-04 13:44:00,58.1,44.7,30.20,NW,322,0.0,3.0,61,0.00,,,0.00,VWS V12.07,2013-06-04 18:44:00,
2013-06-04 13:49:00,58.2,45.3,30.20,WNW,303,2.0,3.0,62,0.00,,,0.00,VWS V12.07,2013-06-04 18:49:00,
2013-06-04 13:54:00,58.3,44.9,30.21,ENE,77,0.0,3.0,61,0.00,,,0.00,VWS V12.07,2013-06-04 18:54:00,
2013-06-04 13:59:00,58.3,45.3,30.21,NNE,22,0.0,3.0,62,0.00,,,0.00,VWS V12.07,2013-06-04 18:59:00,
2013-06-04 14:04:00,58.2,45.7,30.20,West,263,0.0,3.0,63,0.00,,,0.00,VWS V12.07,2013-06-04 19:04:00,
2013-06-04 14:14:00,57.9,45.4,30.21,NW,322,1.0,4.0,63,0.00,,,0.00,VWS V12.07,2013-06-04 19:14:00,
2013-06-04 14:19:00,57.9,46.2,30.21,NW,322,0.0,4.0,65,0.00,,,0.00,VWS V12.07,2013-06-04 19:19:00,
2013-06-04 14:24:00,57.9,46.2,30.20,NW,322,0.0,4.0,65,0.00,,,0.00,VWS V12.07,2013-06-04 19:24:00,
2013-06-04 14:29:00,57.9,47.8,30.21,NW,323,1.0,4.0,69,0.00,,,0.00,VWS V12.07,2013-06-04 19:29:00,
2013-06-04 14:34:00,58.0,46.3,30.21,NW,322,0.0,3.0,65,0.00,,,0.00,VWS V12.07,2013-06-04 19:34:00,
2013-06-04 14:39:00,58.1,47.2,30.21,NW,322,0.0,3.0,67,0.00,,,0.00,VWS V12.07,2013-06-04 19:39:00,
2013-06-04 14:44:00,58.2,46.9,30.21,NW,322,0.0,3.0,66,0.00,,,0.00,VWS V12.07,2013-06-04 19:44:00,
2013-06-04 14:49:00,58.2,47.7,30.21,NW,322,0.0,3.0,68,0.00,,,0.00,VWS V12.07,2013-06-04 19:49:00,
2013-06-04 14:54:00,58.1,48.0,30.21,NW,322,0.0,3.0,69,0.00,,,0.00,VWS V12.07,2013-06-04 19:54:00,
2013-06-04 14:59:00,58.0,48.3,30.20,NW,325,1.0,3.0,70,0.00,,,0.00,VWS V12.07,2013-06-04 19:59:00,
2013-06-04 15:09:00,57.7,48.0,30.20,NW,325,0.0,2.0,70,0.00,,,0.00,VWS V12.07,2013-06-04 20:09:00,
2013-06-04 15:19:00,57.4,48.1,30.20,NNW,331,0.0,3.0,71,0.00,,,0.00,VWS V12.07,2013-06-04 20:19:00,
2013-06-04 15:24:00,57.3,49.1,30.20,NNW,331,0.0,3.0,74,0.00,,,0.00,VWS V12.07,2013-06-04 20:24:00,
2013-06-04 15:29:00,57.2,48.6,30.20,NNW,332,0.0,3.0,73,0.00,,,0.00,VWS V12.07,2013-06-04 20:29:00,
2013-06-04 15:34:00,57.1,48.9,30.20,NNW,332,0.0,0.0,74,0.00,,,0.00,VWS V12.07,2013-06-04 20:34:00,
2013-06-04 15:39:00,57.1,48.2,30.20,NW,321,1.0,4.0,72,0.00,,,0.00,VWS V12.07,2013-06-04 20:39:00,
2013-06-04 15:44:00,57.0,48.4,30.20,NW,321,0.0,4.0,73,0.00,,,0.00,VWS V12.07,2013-06-04 20:44:00,
2013-06-04 15:54:00,56.9,48.0,30.19,NE,44,0.0,4.0,72,0.00,,,0.00,VWS V12.07,2013-06-04 20:54:00,
2013-06-04 15:59:00,56.9,48.0,30.19,NE,44,0.0,4.0,72,0.00,,,0.00,VWS V12.07,2013-06-04 20:59:00,
2013-06-04 16:04:00,56.9,48.3,30.19,NE,44,1.0,1.0,73,0.00,,,0.00,VWS V12.07,2013-06-04 21:04:00,
2013-06-04 16:09:00,56.9,48.3,30.19,NE,42,0.0,1.0,73,0.00,,,0.00,VWS V12.07,2013-06-04 21:09:00,
2013-06-04 16:14:00,57.0,48.4,30.19,NE,41,0.0,3.0,73,0.00,,,0.00,VWS V12.07,2013-06-04 21:14:00,
2013-06-04 16:24:00,57.2,48.3,30.20,NE,34,0.0,3.0,72,0.00,,,0.00,VWS V12.07,2013-06-04 21:24:00,
2013-06-04 16:29:00,57.2,48.3,30.20,NE,37,1.0,3.0,72,0.00,,,0.00,VWS V12.07,2013-06-04 21:29:00,
2013-06-04 16:39:00,57.3,48.0,30.20,NNE,26,0.0,2.0,71,0.00,,,0.00,VWS V12.07,2013-06-04 21:39:00,
2013-06-04 16:44:00,57.4,48.1,30.20,NNW,329,0.0,3.0,71,0.00,,,0.00,VWS V12.07,2013-06-04 21:44:00,
2013-06-04 16:49:00,57.4,48.1,30.20,NW,322,0.0,3.0,71,0.00,,,0.00,VWS V12.07,2013-06-04 21:49:00,
2013-06-04 16:54:00,57.3,48.0,30.20,NE,44,0.0,3.0,71,0.00,,,0.00,VWS V12.07,2013-06-04 21:54:00,
2013-06-04 16:59:00,57.2,47.9,30.20,NE,44,0.0,3.0,71,0.00,,,0.00,VWS V12.07,2013-06-04 21:59:00,
2013-06-04 17:04:00,57.1,47.8,30.20,West,281,2.0,3.0,71,0.00,,,0.00,VWS V12.07,2013-06-04 22:04:00,
2013-06-04 17:09:00,57.0,47.7,30.20,WNW,303,0.0,3.0,71,0.00,,,0.00,VWS V12.07,2013-06-04 22:09:00,
2013-06-04 17:14:00,57.0,47.7,30.21,NW,306,0.0,3.0,71,0.00,,,0.00,VWS V12.07,2013-06-04 22:14:00,
2013-06-04 17:19:00,56.9,48.0,30.21,NW,306,1.0,3.0,72,0.00,,,0.00,VWS V12.07,2013-06-04 22:19:00,
2013-06-04 17:24:00,56.8,48.2,30.21,NW,317,0.0,3.0,73,0.00,,,0.00,VWS V12.07,2013-06-04 22:24:00,
2013-06-04 17:29:00,56.6,48.4,30.21,NW,317,0.0,3.0,74,0.00,,,0.00,VWS V12.07,2013-06-04 22:29:00,
2013-06-04 17:34:00,56.4,48.6,30.21,North,349,0.0,0.0,75,0.00,,,0.00,VWS V12.07,2013-06-04 22:34:00,
2013-06-04 17:39:00,56.2,48.0,30.20,North,349,0.0,2.0,74,0.00,,,0.00,VWS V12.07,2013-06-04 22:39:00,
2013-06-04 17:44:00,56.0,48.2,30.21,North,349,0.0,2.0,75,0.00,,,0.00,VWS V12.07,2013-06-04 22:44:00,
2013-06-04 17:49:00,55.9,48.5,30.21,NNW,348,0.0,2.0,76,0.00,,,0.00,VWS V12.07,2013-06-04 22:49:00,
2013-06-04 17:54:00,55.8,48.4,30.20,NNW,348,0.0,2.0,76,0.00,,,0.00,VWS V12.07,2013-06-04 22:54:00,
2013-06-04 17:59:00,55.7,49.0,30.20,NNW,348,0.0,2.0,78,0.00,,,0.00,VWS V12.07,2013-06-04 22:59:00,
2013-06-04 18:09:00,55.3,48.9,30.20,NNW,348,0.0,0.0,79,0.00,,,0.00,VWS V12.07,2013-06-04 23:09:00,
2013-06-04 18:14:00,55.3,48.9,30.20,NNW,348,0.0,0.0,79,0.00,,,0.00,VWS V12.07,2013-06-04 23:14:00,
2013-06-04 18:19:00,55.3,49.2,30.20,NNW,348,0.0,1.0,80,0.00,,,0.00,VWS V12.07,2013-06-04 23:19:00,
2013-06-04 18:24:00,55.2,49.2,30.20,NNW,348,0.0,1.0,80,0.00,,,0.00,VWS V12.07,2013-06-04 23:24:00,
2013-06-04 18:29:00,55.1,48.7,30.20,NNW,348,0.0,1.0,79,0.00,,,0.00,VWS V12.07,2013-06-04 23:29:00,
2013-06-04 18:34:00,55.0,49.0,30.19,NNW,348,0.0,0.0,80,0.00,,,0.00,VWS V12.07,2013-06-04 23:34:00,
2013-06-04 18:39:00,55.0,49.3,30.19,NNW,348,0.0,0.0,81,0.00,,,0.00,VWS V12.07,2013-06-04 23:39:00,
2013-06-04 18:49:00,54.7,49.0,30.19,NNW,348,0.0,0.0,81,0.00,,,0.00,VWS V12.07,2013-06-04 23:49:00,
2013-06-04 18:54:00,54.5,49.1,30.20,NNW,348,0.0,0.0,82,0.00,,,0.00,VWS V12.07,2013-06-04 23:54:00,
2013-06-04 18:59:00,54.4,49.0,30.19,NNW,348,0.0,0.0,82,0.00,,,0.00,VWS V12.07,2013-06-04 23:59:00,
2013-06-04 19:04:00,54.3,48.9,30.20,NNW,348,0.0,0.0,82,0.00,,,0.00,VWS V12.07,2013-06-05 00:04:00,
2013-06-04 19:09:00,54.2,48.8,30.20,NNW,348,0.0,0.0,82,0.00,,,0.00,VWS V12.07,2013-06-05 00:09:00,
2013-06-04 19:14:00,54.1,48.7,30.20,NNW,348,0.0,0.0,82,0.00,,,0.00,VWS V12.07,2013-06-05 00:14:00,
2013-06-04 19:19:00,53.9,48.9,30.20,NNW,348,0.0,0.0,83,0.00,,,0.00,VWS V12.07,2013-06-05 00:19:00,
2013-06-04 19:24:00,53.8,48.8,30.19,NNW,348,0.0,0.0,83,0.00,,,0.00,VWS V12.07,2013-06-05 00:24:00,
2013-06-04 19:29:00,53.7,49.0,30.19,NNW,348,0.0,0.0,84,0.00,,,0.00,VWS V12.07,2013-06-05 00:29:00,
2013-06-04 19:34:00,53.7,49.0,30.19,NNW,348,0.0,0.0,84,0.00,,,0.00,VWS V12.07,2013-06-05 00:34:00,
2013-06-04 19:39:00,53.7,49.0,30.19,NNW,348,0.0,0.0,84,0.00,,,0.00,VWS V12.07,2013-06-05 00:39:00,
2013-06-04 19:49:00,53.6,48.9,30.19,NNW,348,0.0,0.0,84,0.00,,,0.00,VWS V12.07,2013-06-05 00:49:00,
2013-06-04 19:54:00,53.5,48.8,30.19,NNW,348,0.0,0.0,84,0.00,,,0.00,VWS V12.07,2013-06-05 00:54:00,
2013-06-04 19:59:00,53.4,48.7,30.20,NNW,348,0.0,0.0,84,0.00,,,0.00,VWS V12.07,2013-06-05 00:59:00,
2013-06-04 20:04:00,53.3,48.6,30.20,NNW,348,0.0,0.0,84,0.00,,,0.00,VWS V12.07,2013-06-05 01:04:00,
2013-06-04 20:09:00,53.2,48.5,30.19,NNW,348,0.0,0.0,84,0.00,,,0.00,VWS V12.07,2013-06-05 01:09:00,
2013-06-04 20:19:00,53.1,48.7,30.20,NNW,348,0.0,0.0,85,0.00,,,0.00,VWS V12.07,2013-06-05 01:19:00,
2013-06-04 20:24:00,53.0,48.6,30.19,NNW,348,0.0,0.0,85,0.00,,,0.00,VWS V12.07,2013-06-05 01:24:00,
2013-06-04 20:29:00,52.9,48.5,30.19,NNW,348,0.0,0.0,85,0.00,,,0.00,VWS V12.07,2013-06-05 01:29:00,
2013-06-04 20:34:00,52.8,48.4,30.19,NNW,348,0.0,0.0,85,0.00,,,0.00,VWS V12.07,2013-06-05 01:34:00,
2013-06-04 20:39:00,52.7,48.3,30.19,NNW,348,0.0,0.0,85,0.00,,,0.00,VWS V12.07,2013-06-05 01:39:00,
2013-06-04 20:44:00,52.7,48.3,30.19,NNW,348,0.0,0.0,85,0.00,,,0.00,VWS V12.07,2013-06-05 01:44:00,
2013-06-04 20:49:00,52.6,48.2,30.19,NNW,348,0.0,1.0,85,0.00,,,0.00,VWS V12.07,2013-06-05 01:49:00,
2013-06-04 20:54:00,52.6,48.2,30.19,NNW,348,0.0,1.0,85,0.00,,,0.00,VWS V12.07,2013-06-05 01:54:00,
2013-06-04 20:59:00,52.5,48.1,30.19,NNW,348,0.0,1.0,85,0.00,,,0.00,VWS V12.07,2013-06-05 01:59:00,
2013-06-04 21:04:00,52.4,48.3,30.19,NNW,348,0.0,0.0,86,0.00,,,0.00,VWS V12.07,2013-06-05 02:04:00,
2013-06-04 21:14:00,52.3,48.2,30.19,NNW,348,0.0,0.0,86,0.00,,,0.00,VWS V12.07,2013-06-05 02:14:00,
2013-06-04 21:24:00,52.3,48.5,30.19,NNW,348,0.0,0.0,87,0.00,,,0.00,VWS V12.07,2013-06-05 02:24:00,
2013-06-04 21:29:00,52.3,48.5,30.19,NNW,348,0.0,1.0,87,0.00,,,0.00,VWS V12.07,2013-06-05 02:29:00,
2013-06-04 21:34:00,52.4,48.7,30.19,NNW,348,0.0,1.0,87,0.00,,,0.00,VWS V12.07,2013-06-05 02:34:00,
2013-06-04 21:39:00,52.4,48.7,30.19,NNW,348,0.0,1.0,87,0.00,,,0.00,VWS V12.07,2013-06-05 02:39:00,
2013-06-04 21:44:00,52.4,48.7,30.19,NNW,348,0.0,1.0,87,0.00,,,0.00,VWS V12.07,2013-06-05 02:44:00,
2013-06-04 21:49:00,52.3,48.2,30.19,NNW,348,0.0,1.0,86,0.00,,,0.00,VWS V12.07,2013-06-05 02:49:00,
2013-06-04 21:54:00,52.3,48.2,30.19,NNW,348,0.0,1.0,86,0.00,,,0.00,VWS V12.07,2013-06-05 02:54:00,
2013-06-04 21:59:00,52.4,48.0,30.19,NNW,348,0.0,1.0,85,0.00,,,0.00,VWS V12.07,2013-06-05 02:59:00,
2013-06-04 22:04:00,52.4,48.3,30.19,NNW,348,0.0,0.0,86,0.00,,,0.00,VWS V12.07,2013-06-05 03:04:00,
2013-06-04 22:09:00,52.4,48.3,30.20,NNW,348,0.0,0.0,86,0.00,,,0.00,VWS V12.07,2013-06-05 03:09:00,
2013-06-04 22:14:00,52.3,47.9,30.20,NNW,348,0.0,1.0,85,0.00,,,0.00,VWS V12.07,2013-06-05 03:14:00,
2013-06-04 22:24:00,52.3,47.9,30.20,NNW,348,0.0,1.0,85,0.00,,,0.00,VWS V12.07,2013-06-05 03:24:00,
2013-06-04 22:29:00,52.2,47.5,30.20,NNW,348,0.0,1.0,84,0.00,,,0.00,VWS V12.07,2013-06-05 03:29:00,
2013-06-04 22:34:00,52.2,47.5,30.21,NNW,348,0.0,0.0,84,0.00,,,0.00,VWS V12.07,2013-06-05 03:34:00,
2013-06-04 22:39:00,52.1,47.4,30.21,NNW,348,0.0,0.0,84,0.00,,,0.00,VWS V12.07,2013-06-05 03:39:00,
2013-06-04 22:44:00,52.1,47.4,30.21,NNW,348,0.0,1.0,84,0.00,,,0.00,VWS V12.07,2013-06-05 03:44:00,
2013-06-04 22:49:00,52.0,47.3,30.21,NNW,348,0.0,1.0,84,0.00,,,0.00,VWS V12.07,2013-06-05 03:49:00,
2013-06-04 22:54:00,52.0,47.6,30.21,NNW,348,0.0,1.0,85,0.00,,,0.00,VWS V12.07,2013-06-05 03:54:00,
2013-06-04 22:59:00,52.0,47.6,30.21,NNW,348,0.0,1.0,85,0.00,,,0.00,VWS V12.07,2013-06-05 03:59:00,
2013-06-04 23:04:00,51.9,47.5,30.21,NNW,348,0.0,0.0,85,0.00,,,0.00,VWS V12.07,2013-06-05 04:04:00,
2013-06-04 23:09:00,51.9,47.5,30.21,NNW,348,0.0,1.0,85,0.00,,,0.00,VWS V12.07,2013-06-05 04:09:00,
2013-06-04 23:14:00,51.8,47.8,30.22,NNW,348,0.0,1.0,86,0.00,,,0.00,VWS V12.07,2013-06-05 04:14:00,
2013-06-04 23:19:00,51.7,48.0,30.22,NNW,348,0.0,1.0,87,0.00,,,0.00,VWS V12.07,2013-06-05 04:19:00,
2013-06-04 23:24:00,51.5,47.8,30.22,NNW,348,0.0,1.0,87,0.01,,,0.01,VWS V12.07,2013-06-05 04:24:00,
2013-06-04 23:34:00,51.1,47.7,30.21,NNW,348,0.0,0.0,88,0.01,,,0.01,VWS V12.07,2013-06-05 04:34:00,
2013-06-04 23:39:00,51.0,47.9,30.22,NNW,348,0.0,0.0,89,0.02,,,0.02,VWS V12.07,2013-06-05 04:39:00,
2013-06-04 23:44:00,50.8,47.7,30.22,NNW,348,0.0,0.0,89,0.02,,,0.02,VWS V12.07,2013-06-05 04:44:00,
2013-06-04 23:49:00,50.7,47.9,30.22,NNW,348,0.0,0.0,90,0.02,,,0.02,VWS V12.07,2013-06-05 04:49:00,
2013-06-04 23:54:00,50.7,47.9,30.21,NNW,348,0.0,1.0,90,0.02,,,0.02,VWS V12.07,2013-06-05 04:54:00,